This is the latest recevied weather packets stored in our database for station/object KQ4UPF. If no packets are shown the sender has not sent any weather packets the latest 10 day(s).
| Time | Temp. | Humidity | Pressure | Rain* | Wind** | Luminosity | Snow |
|---|---|---|---|---|---|---|---|
| 1777598662 | 11.67° C | 88% | 1014.6 hPa | 0 mm | - | 0 W/m² | - |
| 1777598357 | 12.22° C | 87% | 1014.9 hPa | 0 mm | - | 0 W/m² | - |
| 1777598056 | 12.22° C | 86% | 1014.7 hPa | 0 mm | - | 0 W/m² | - |
| 1777597755 | 12.22° C | 86% | 1014.8 hPa | 0 mm | - | 0 W/m² | - |
| 1777597451 | 12.22° C | 85% | 1014.7 hPa | 0 mm | - | 0 W/m² | - |
| 1777597146 | 12.78° C | 84% | 1014.6 hPa | 0 mm | - | 0 W/m² | - |
| 1777596843 | 12.78° C | 80% | 1014.7 hPa | 0 mm | - | 0 W/m² | - |
| 1777596538 | 12.78° C | 82% | 1014.9 hPa | 0 mm | - | 0 W/m² | - |
| 1777596236 | 12.78° C | 82% | 1014.8 hPa | 0 mm | - | 0 W/m² | - |
| 1777595933 | 12.78° C | 83% | 1014.8 hPa | 0 mm | - | 1 W/m² | - |
| 1777595633 | 12.78° C | 83% | 1014.8 hPa | 0 mm | - | 1 W/m² | - |
| 1777595329 | 13.33° C | 80% | 1014.8 hPa | 0 mm | - | 3 W/m² | - |
| 1777595025 | 13.89° C | 81% | 1014.7 hPa | 0 mm | - | 5 W/m² | - |
| 1777594722 | 13.89° C | 80% | 1014.7 hPa | 0 mm | - | 7 W/m² | - |
| 1777594419 | 13.89° C | 79% | 1014.5 hPa | 0 mm | - | 12 W/m² | - |
| 1777594114 | 14.44° C | 80% | 1014.5 hPa | 0 mm | - | 18 W/m² | - |
| 1777593810 | 15° C | 79% | 1014.5 hPa | 0 mm | - | 22 W/m² | - |
| 1777593507 | 15° C | 72% | 1014.5 hPa | 0 mm | - | 29 W/m² | - |
| 1777593201 | 15.56° C | 80% | 1014.5 hPa | 0 mm | - | 36 W/m² | - |
| 1777592900 | 15.56° C | 72% | 1014.6 hPa | 0 mm | - | 46 W/m² | - |
| 1777592596 | 15.56° C | 68% | 1014.4 hPa | 0 mm | - | 57 W/m² | - |
| 1777592293 | 15.56° C | 71% | 1014.1 hPa | 0 mm | - | 61 W/m² | - |
| 1777591988 | 16.11° C | 69% | 1014.3 hPa | 0 mm | - | 63 W/m² | - |
| 1777591684 | 16.11° C | 67% | 1014.2 hPa | 0 mm | - | 68 W/m² | - |
| 1777591380 | 16.11° C | 65% | 1014.1 hPa | 0 mm | - | 79 W/m² | - |
* Rain latest hour (hover to see other rain measurements)
** Current wind speed in m/s (hover to see current wind gust speed)